Vertical_Velocity
-0 -10 -1 0 0 -0 -0 1 0 -2 -2 2 -1 -1 -4 -1 3 1 -0 -0 -2 -1 -1 -1 -1 -1 -3 -1 1 -3 -1 -2 0 2 4 3 2 -1 -3 -3 -2 -0 1 5
-8 -1 -1 0 -0 0 0 0 -2 -4 -0 2 -1 -4 -1 -0 -1 -2 -1 -1 -3 -2 -2 1 -0 -0 -0 -2 -1 -0 -1 -3 -3 -3 -2 -3 -1 -1 -2 1 -0 -0 -0 -4
-2 -0 -0 -0 -0 -1 -1 -0 -0 -0 -2 -0 0 -4 -1 -1 0 0 0 -1 -0 -2 -1 2 -0 2 0 1 1 -1 -2 -1 -2 -3 -3 -3 -1 -0 2 -0 -0 1 -1 -2
0 -1 0 -0 -0 -1 1 -1 1 1 -1 -3 -2 -7 -2 -1 -2 0 -0 -2 -3 -0 1 -0 2 0 -1 -1 1 -1 -1 0 -1 -2 -1 -0 -3 -3 -5 -5 -4 -3 -1 -2
-5 -1 -1 0 -1 -0 -9 0 1 0 0 -1 -1 -4 -11 -0 -2 -2 -2 -3 -3 -2 0 0 -2 -1 -2 0 -0 -1 -0 -1 0 -0 -0 -2 -1 -2 -1 0 -1 -0 -4 -2
-1 0 0 -1 -0 -0 -1 -1 -1 -1 -1 -3 -1 -4 -8 -2 -4 0 -1 -1 -1 0 -1 -2 -0 -2 -2 -1 -2 -2 -2 -2 -2 1 1 1 1 -0 -1 -0 0 1 -2 -1
-5 -1 -1 0 -1 -2 -5 -4 -4 -9 -6 -5 -0 0 -13 -1 -1 -1 -0 -1 -1 -0 -3 -2 -2 -2 -1 0 0 1 1 -0 -1 -1 1 3 1 0 0 -1 -0 -0 1 -1
-1 -14 -1 -0 -1 -0 0 -2 -4 -1 -1 -4 -1 -4 -15 -2 1 -1 -0 -1 -2 -0 -0 -2 -1 -1 1 2 0 0 2 2 3 3 2 0 1 2 -1 0 -0 -2 -1 -1
-2 -6 -2 0 0 -6 2 -2 -3 -1 -0 -1 -4 -9 -6 -0 -2 -2 -2 -1 -1 -1 -2 1 3 1 1 1 1 -1 -2 -3 -5 -5 -3 -2 -2 0 1 1 1 -2 -1 1
-2 -5 -1 -0 -0 1 -2 -4 -5 -3 -1 -2 -4 -2 -7 -1 -2 -1 -1 -2 -1 1 2 1 -1 1 2 -0 -4 -4 -4 -2 2 1 1 2 1 -3 -1 1 2 -1 -1 -1
-2 -4 -11 -2 -1 -3 -2 -1 -0 -4 -3 -1 -1 -10 -5 -2 -2 -1 0 -1 0 1 -2 0 2 2 2 3 4 7 8 4 2 1 1 -0 -3 -1 -1 0 0 -1 0 1
-3 -3 -1 -11 -1 -1 -1 -2 -3 -4 -4 -1 -1 -19 1 -1 -0 -1 0 0 0 3 -1 -1 1 2 2 3 6 3 -3 -3 4 0 -3 -2 1 1 1 -3 -0 1 1 -3
-5 -3 -2 -12 -6 -0 0 -0 -1 -0 -0 -5 3 -14 0 0 0 0 -1 -0 -1 -2 -5 -3 -1 1 1 5 -0 -1 0 -1 -0 2 1 -0 -1 -4 -1 0 -1 -3 0 -1
1 -0 -5 -6 -9 -2 1 1 0 1 4 -4 -13 -11 -6 -3 -0 1 0 1 1 -2 -2 -2 1 -4 -1 -2 -2 1 2 3 0 4 5 3 1 -1 -0 1 -3 -1 -1 -0
-3 -0 2 -3 -1 2 -0 0 -1 4 -10 8 -30 0 -10 -2 -1 -0 1 1 0 -1 -2 -4 -2 -0 -1 2 2 -0 1 6 3 2 -3 -3 -0 2 -0 -0 1 -0 -2 -1
0 -4 1 -2 -0 2 2 -1 1 -0 -3 3 4 -13 0 1 1 -0 -1 -3 -1 -1 -2 -3 -2 -4 1 4 5 4 3 -0 -1 -0 0 -1 -1 2 1 -0 0 -1 -1 -0
-0 -0 0 -9 -0 0 1 -11 -3 -1 -0 -5 1 -16 -0 1 -0 0 1 3 -2 -1 -2 -1 -2 -0 3 3 4 2 -1 -2 -1 -1 -0 -1 2 -0 2 0 1 0 -1 -1
-0 0 1 -2 -1 2 -16 -0 -2 -3 -2 0 0 1 -0 0 -1 -3 0 -1 -3 -0 -0 -1 1 1 1 1 1 -1 1 1 -0 -1 1 0 0 1 1 0 -0 -1 -3 -1
3 2 0 1 -1 -15 -13 -2 -2 -5 -5 -0 -2 1 -0 -1 1 1 2 -0 1 -2 -2 0 -0 -0 0 -0 0 -1 1 1 -0 -1 0 1 0 1 1 -0 -2 -0 -0 -0
-0 3 4 2 2 -1 -1 -1 -0 -0 -5 -0 -3 -1 -1 0 1 -0 0 1 1 -1 -1 1 -2 1 2 2 2 1 0 -1 -1 0 0 0 -0 1 -2 -2 -1 1 -1 -1
1 1 -2 -1 0 -4 -1 -0 0 -5 -3 -1 -1 0 -1 -0 -0 1 0 -1 -2 -2 1 2 0 1 -1 -1 -1 0 1 -0 -0 -1 -0 0 -1 -2 -1 1 0 0 -0 0
-2 -1 -1 1 2 -6 -0 -1 -0 -1 1 -1 0 1 0 0 2 -1 -1 0 -3 -3 1 -0 -2 1 1 2 1 1 -0 0 0 1 -1 -1 -0 0 0 1 0 -1 -0 -0
-3 -6 -2 -3 -8 -0 -3 1 4 3 3 0 0 0 -0 1 -1 1 -0 -0 -1 2 0 -1 -0 2 0 -0 -1 -1 -1 -1 -2 2 -0 -0 0 -0 0 1 0 0 -0 -1
-1 2 0 2 -4 -0 7 0 -2 -1 -1 1 -1 -0 1 -0 -1 0 0 1 2 -0 -1 -0 1 -0 -2 -1 0 -0 1 -0 -0 0 -1 -1 1 -1 0 1 -0 0 0 0
5 3 -0 -3 -0 -1 -0 3 5 3 2 -0 1 0 -1 -1 -1 1 1 1 0 -0 -0 -0 -1 -0 0 0 -0 0 -1 1 0 -1 0 1 1 -0 -0 1 0 -0 0 -1
3 5 3 3 5 7 3 4 2 -0 -1 -0 -2 0 -0 -0 0 1 0 1 0 1 -1 0 -1 -0 -1 0 -1 0 -1 1 -1 -2 1 1 1 1 -0 -1 2 -0 -1 -1
Height
1541 1549 1554 1550 1549 1547 1548 1551 1551 1543 1536 1536 1535 1534 1526 1524 1524 1526 1526 1526 1526 1525 1526 1525 1525 1524 1524 1522 1519 1516 1513 1510 1507 1505 1504 1502 1500 1499 1498 1497 1496 1494 1492 1491
1548 1552 1548 1547 1547 1546 1546 1546 1546 1539 1535 1537 1533 1530 1524 1522 1521 1520 1522 1523 1524 1524 1523 1523 1522 1522 1521 1521 1519 1516 1513 1510 1508 1506 1503 1502 1500 1498 1496 1495 1494 1493 1491 1491
1551 1549 1547 1547 1548 1549 1545 1545 1543 1545 1538 1535 1535 1527 1522 1520 1519 1518 1519 1520 1521 1519 1519 1520 1522 1521 1520 1519 1517 1516 1513 1511 1508 1506 1504 1503 1501 1500 1498 1496 1494 1491 1489 1488
1551 1548 1547 1546 1546 1548 1550 1540 1542 1544 1544 1542 1535 1537 1524 1519 1519 1518 1516 1516 1517 1518 1519 1519 1519 1520 1519 1518 1516 1515 1513 1511 1509 1507 1505 1503 1501 1499 1497 1496 1495 1494 1491 1489
1551 1549 1548 1546 1545 1546 1546 1540 1541 1540 1543 1544 1537 1542 1521 1520 1517 1515 1512 1513 1514 1517 1518 1519 1519 1519 1518 1516 1515 1514 1513 1512 1510 1508 1505 1503 1501 1498 1497 1496 1495 1493 1492 1490
1549 1549 1548 1546 1544 1544 1542 1540 1541 1545 1547 1548 1532 1540 1523 1519 1513 1512 1512 1510 1511 1513 1515 1515 1515 1515 1515 1514 1513 1512 1511 1511 1510 1508 1506 1503 1501 1499 1498 1496 1494 1492 1491 1490
1554 1548 1547 1546 1545 1544 1545 1548 1554 1551 1553 1541 1538 1538 1519 1508 1508 1508 1509 1509 1509 1510 1511 1512 1510 1511 1510 1510 1510 1510 1509 1508 1508 1507 1506 1504 1501 1500 1498 1496 1494 1492 1491 1489
1566 1558 1546 1546 1546 1547 1549 1553 1561 1553 1557 1549 1542 1537 1514 1506 1506 1506 1506 1506 1506 1507 1507 1507 1507 1507 1507 1508 1509 1509 1509 1509 1507 1506 1505 1504 1502 1499 1498 1496 1494 1492 1490 1489
1564 1556 1544 1545 1545 1548 1549 1554 1553 1557 1559 1563 1542 1527 1509 1507 1506 1506 1506 1506 1505 1505 1505 1504 1504 1505 1505 1505 1506 1507 1507 1507 1506 1506 1504 1503 1502 1501 1498 1496 1494 1492 1491 1489
1559 1564 1546 1545 1547 1548 1547 1550 1554 1563 1553 1550 1539 1536 1519 1507 1506 1505 1506 1505 1505 1504 1503 1503 1503 1503 1503 1502 1502 1501 1500 1501 1502 1503 1502 1501 1499 1499 1498 1496 1494 1491 1490 1488
1557 1563 1552 1548 1547 1546 1551 1553 1553 1557 1560 1552 1554 1528 1507 1505 1504 1505 1506 1506 1506 1504 1504 1501 1500 1499 1498 1497 1497 1496 1496 1496 1496 1497 1497 1496 1497 1497 1496 1495 1493 1491 1488 1486
1555 1563 1565 1548 1541 1541 1543 1544 1549 1556 1547 1550 1552 1513 1502 1500 1501 1502 1504 1505 1506 1504 1502 1502 1499 1497 1496 1495 1495 1496 1497 1496 1495 1495 1496 1497 1495 1494 1492 1491 1490 1487 1485 1483
1555 1560 1562 1544 1545 1542 1542 1540 1540 1537 1538 1539 1540 1510 1501 1501 1501 1502 1503 1502 1502 1501 1502 1500 1498 1495 1492 1493 1494 1494 1493 1493 1493 1493 1492 1492 1492 1491 1490 1487 1485 1483 1482 1480
1550 1555 1551 1546 1538 1536 1538 1535 1533 1533 1536 1529 1513 1497 1498 1497 1499 1500 1501 1501 1500 1498 1497 1496 1493 1491 1489 1490 1493 1494 1493 1490 1489 1490 1489 1489 1488 1487 1486 1483 1480 1480 1480 1478
1547 1551 1548 1536 1533 1532 1525 1521 1521 1524 1513 1521 1485 1501 1484 1494 1496 1497 1499 1499 1497 1495 1493 1493 1490 1488 1486 1486 1487 1488 1491 1491 1491 1490 1489 1488 1486 1483 1481 1481 1479 1478 1477 1476
1543 1543 1541 1535 1529 1524 1519 1513 1506 1503 1498 1500 1494 1488 1489 1494 1494 1495 1495 1494 1492 1491 1490 1489 1486 1484 1482 1483 1484 1485 1488 1489 1490 1488 1486 1484 1482 1481 1479 1478 1477 1475 1475 1474
1541 1538 1538 1516 1519 1521 1508 1490 1489 1489 1487 1485 1493 1480 1486 1492 1495 1495 1493 1490 1489 1490 1488 1487 1485 1483 1482 1483 1484 1485 1486 1486 1486 1485 1482 1480 1479 1478 1477 1475 1474 1473 1472 1472
1527 1530 1535 1521 1521 1510 1476 1475 1475 1479 1477 1482 1486 1488 1489 1491 1492 1492 1492 1490 1490 1488 1486 1485 1483 1482 1480 1481 1483 1484 1484 1483 1482 1481 1480 1478 1477 1476 1475 1473 1472 1470 1470 1470
1514 1518 1523 1516 1506 1485 1474 1472 1478 1477 1467 1476 1482 1487 1490 1490 1489 1485 1484 1487 1486 1486 1485 1483 1481 1482 1480 1480 1480 1480 1480 1479 1478 1478 1478 1477 1475 1474 1472 1470 1470 1469 1468 1467
1517 1516 1515 1511 1503 1487 1479 1479 1479 1476 1473 1476 1478 1483 1485 1486 1485 1481 1483 1484 1484 1484 1482 1480 1479 1479 1478 1478 1478 1478 1477 1476 1476 1476 1475 1474 1473 1471 1469 1468 1467 1466 1464 1462
1515 1514 1506 1496 1486 1480 1477 1477 1477 1484 1477 1480 1481 1481 1483 1485 1486 1483 1482 1481 1481 1481 1482 1479 1477 1477 1476 1476 1476 1475 1474 1473 1474 1473 1472 1471 1469 1468 1467 1465 1463 1461 1460 1459
1498 1505 1502 1494 1486 1476 1477 1479 1481 1478 1476 1478 1479 1480 1481 1482 1480 1478 1478 1477 1478 1480 1479 1476 1476 1476 1475 1474 1474 1473 1472 1471 1471 1470 1468 1467 1466 1464 1463 1461 1459 1458 1456 1455
1499 1489 1489 1489 1476 1476 1476 1474 1474 1474 1476 1478 1479 1480 1481 1480 1480 1478 1478 1477 1477 1477 1476 1475 1475 1474 1472 1473 1471 1471 1470 1468 1468 1466 1465 1463 1462 1460 1459 1457 1456 1455 1453 1452
1487 1484 1486 1485 1470 1473 1475 1477 1478 1480 1479 1480 1479 1480 1481 1479 1479 1479 1478 1477 1475 1474 1474 1474 1474 1472 1471 1470 1469 1468 1467 1465 1464 1462 1461 1459 1458 1456 1455 1453 1452 1451 1450 1449
1487 1483 1479 1475 1477 1478 1478 1480 1481 1481 1480 1481 1480 1479 1479 1479 1479 1479 1477 1476 1474 1473 1473 1472 1471 1470 1468 1467 1466 1464 1463 1461 1460 1459 1457 1455 1454 1452 1451 1450 1448 1447 1447 1446
1506 1506 1498 1489 1494 1490 1489 1487 1483 1483 1482 1482 1481 1480 1480 1480 1479 1478 1476 1475 1473 1472 1471 1470 1468 1467 1465 1463 1462 1460 1459 1457 1456 1455 1453 1452 1450 1448 1447 1445 1445 1444 1443 1442